Theta_e
318 319 319 323 326 325 325 326 321 324 323 313 314 314 317 322 322 322 322 322 322 320 319 319 319 319 319 320 321 319 320 319 320 316 318 329 327 320 326 329 327 336 338 342 344 334 335 338 339 341 342 342 342 341 341 341 340 339 338 337 337 337 338 337 338 339 339 340 339 339 339 339 337 337 337 337 337 337 337 336 335 336 337 337 338 340 340 340 339 339 338 338 336 336 335 333 332
322 323 323 324 326 325 325 324 318 318 317 311 314 315 317 321 321 322 321 320 321 320 318 319 318 319 319 319 319 320 320 319 321 318 322 327 324 324 322 322 325 334 338 341 345 336 337 340 340 341 341 342 342 341 341 340 340 339 338 337 338 338 338 338 339 339 339 339 339 339 339 338 336 336 337 337 337 337 337 336 336 336 337 338 340 340 340 339 338 338 337 336 335 334 334 332 330
324 324 324 325 325 324 323 323 317 312 313 310 312 318 319 319 321 321 319 319 320 319 318 318 319 319 318 319 320 320 321 320 321 318 323 325 325 332 326 319 323 333 339 340 345 339 339 342 340 342 341 342 342 340 341 339 340 339 338 338 338 338 338 338 339 339 339 338 339 339 339 338 337 337 338 337 338 337 336 336 336 337 338 339 340 339 339 338 337 336 336 335 334 334 334 332 331
323 324 324 325 323 324 323 323 321 313 311 310 311 318 320 319 320 319 319 320 319 319 318 319 320 320 319 320 321 320 321 319 321 320 321 327 328 333 329 321 320 330 338 340 344 341 341 342 340 341 341 342 342 341 340 339 339 339 339 339 338 337 338 338 338 339 338 339 339 338 339 339 338 338 338 338 337 337 336 336 337 337 338 338 339 338 337 336 336 335 334 333 333 333 333 333 332
325 324 323 325 322 324 323 321 320 315 313 313 312 317 320 319 319 319 319 320 319 319 318 319 320 320 319 319 320 319 320 319 321 320 320 328 325 327 329 323 321 328 338 340 342 343 342 342 339 340 341 342 341 341 340 339 339 338 338 338 337 336 337 338 337 338 339 339 339 338 339 339 339 338 338 337 337 336 336 336 336 337 337 337 337 337 336 335 334 333 333 332 332 333 333 333 332
327 324 322 323 322 322 321 318 316 315 317 318 315 317 320 318 319 319 320 320 319 319 318 319 319 319 319 319 320 319 320 319 321 321 323 329 323 323 327 326 325 329 337 339 341 343 343 342 340 339 341 342 341 341 339 339 339 339 338 338 338 337 336 337 337 338 339 339 339 339 340 339 339 338 337 336 335 335 335 336 336 336 336 336 335 335 334 333 332 332 332 331 332 332 331 331 327
326 325 322 321 321 321 318 316 315 315 319 320 317 318 319 317 319 319 320 320 320 319 318 318 319 318 319 319 319 319 321 319 322 324 323 325 321 321 325 328 330 331 336 338 341 343 343 342 340 338 340 341 341 340 340 339 339 339 339 339 339 338 337 337 338 338 339 339 339 339 339 339 339 338 337 335 335 334 333 334 334 335 335 334 334 333 332 331 331 330 330 330 330 329 326 322 315
324 325 323 321 323 322 318 316 316 318 319 319 318 318 318 318 320 319 320 320 320 320 318 318 318 318 319 319 319 320 320 318 319 322 320 318 319 319 323 331 333 332 335 337 340 343 342 341 340 338 339 340 341 340 340 339 339 340 339 339 339 339 337 337 338 338 339 340 339 339 339 339 338 337 336 335 333 333 332 331 332 333 333 334 332 331 330 329 329 328 328 327 326 322 317 310 304
323 323 322 321 323 321 318 317 317 320 320 319 318 318 318 319 319 320 320 320 321 320 320 319 318 319 319 319 319 321 321 319 317 317 316 315 317 317 320 331 335 333 336 337 339 342 341 340 339 338 338 339 340 340 340 339 339 339 339 339 338 338 337 337 338 338 339 339 339 339 339 338 338 337 336 334 332 331 330 330 330 331 331 332 331 329 328 327 327 326 326 324 319 312 306 301 299
321 321 323 322 319 316 315 315 317 319 320 319 318 318 318 318 319 319 319 320 321 320 320 318 318 319 319 320 319 322 322 318 316 317 317 315 317 319 320 327 334 336 336 338 339 340 340 339 338 337 338 339 339 340 339 338 339 339 339 338 337 338 337 337 338 338 339 339 339 338 339 338 337 336 335 334 332 330 330 329 328 329 330 330 330 328 327 327 326 325 325 319 309 302 299 299 299
323 320 321 320 317 313 311 314 316 319 319 319 319 319 319 319 319 319 319 320 320 319 319 317 318 318 319 319 319 323 321 317 318 322 321 315 317 322 327 328 331 337 336 337 338 338 339 337 335 336 338 339 339 340 339 338 338 338 338 337 336 337 337 338 338 338 338 338 338 338 338 337 336 335 334 332 331 329 328 328 327 328 328 327 327 326 326 326 325 325 321 311 301 299 299 299 299
324 321 320 317 315 314 314 315 315 318 319 319 320 319 318 318 318 319 319 319 319 319 319 318 318 318 318 318 320 323 320 318 320 322 319 315 319 322 328 332 331 334 337 337 335 336 338 336 333 336 339 339 339 339 338 336 337 337 336 336 336 336 337 337 338 338 338 338 338 338 337 336 336 334 333 331 329 328 327 326 326 326 326 325 325 325 325 324 324 322 314 303 298 299 299 299 299
323 323 321 317 318 317 316 316 317 319 319 319 319 318 317 318 319 319 318 317 318 318 319 318 318 318 317 318 319 320 321 321 319 318 315 317 325 325 326 333 332 334 337 336 335 336 338 337 335 337 339 339 339 338 338 336 336 336 335 336 335 335 336 337 338 338 338 338 338 337 336 335 334 333 332 331 329 328 326 325 325 325 324 324 324 324 324 323 323 319 306 298 298 298 299 299 299
322 322 321 319 320 319 317 316 317 317 317 318 318 317 317 317 318 317 317 317 317 318 318 317 317 317 317 318 319 320 322 320 317 315 315 316 324 327 327 332 333 333 336 335 335 337 338 339 337 337 337 338 338 337 337 336 336 336 336 336 335 335 336 337 337 338 338 337 337 336 335 334 333 331 331 330 329 328 326 324 324 324 324 324 324 324 323 323 322 314 302 298 298 298 298 298 298
321 321 320 320 319 318 319 318 318 316 316 319 318 317 317 317 317 317 317 317 317 318 317 317 317 317 317 318 318 321 321 317 316 314 315 315 319 324 326 328 330 331 332 335 335 336 337 338 338 337 336 337 337 337 337 336 336 335 335 336 335 336 336 337 337 338 337 336 336 335 334 332 330 330 330 330 328 327 325 323 323 324 324 323 323 323 323 323 319 308 300 298 298 298 298 298 299
321 321 321 320 317 317 320 320 319 317 317 319 317 316 317 317 317 316 317 316 316 317 317 317 316 317 317 317 318 321 319 316 315 315 318 319 319 323 324 326 330 330 330 333 334 335 336 337 337 337 337 336 337 337 337 337 336 335 334 335 336 336 336 336 337 337 336 335 334 333 332 330 328 329 330 329 327 327 325 322 322 323 323 323 323 322 322 322 315 303 299 298 298 299 299 299 299
320 321 321 319 317 317 320 321 319 317 318 318 317 317 317 317 317 316 316 315 316 317 317 317 317 317 316 317 319 319 318 316 316 318 322 324 324 325 326 327 329 331 331 331 333 334 334 336 337 337 337 336 336 336 335 336 336 335 334 335 336 337 336 337 337 336 335 333 331 331 332 330 328 328 328 328 326 326 325 322 321 322 323 322 322 321 321 319 310 300 299 298 298 298 299 299 300
320 321 320 318 318 319 320 321 318 318 318 318 317 317 317 317 317 316 315 315 316 316 317 317 317 318 317 317 318 319 318 317 319 320 322 325 326 326 327 329 329 330 332 332 332 333 334 336 336 336 337 336 336 336 335 335 335 335 335 335 336 337 336 336 336 335 333 332 331 331 331 329 328 328 327 326 326 325 324 321 319 320 321 322 321 321 321 317 306 298 298 298 299 298 298 299 300
320 321 320 319 320 319 320 319 317 318 318 318 317 317 317 316 317 316 316 316 316 317 317 317 318 317 318 318 318 319 318 319 321 321 320 322 324 325 326 328 330 329 331 332 331 332 333 335 336 336 336 336 336 336 335 334 334 335 335 335 335 336 336 335 335 334 333 332 331 330 329 328 328 328 327 326 325 325 323 319 317 317 320 322 320 320 320 316 304 298 298 298 298 298 298 300 300
319 320 320 320 321 319 320 319 318 318 317 317 317 317 317 317 317 317 316 316 316 317 317 317 318 318 318 318 318 318 318 319 320 320 320 320 321 322 323 325 329 329 329 330 331 332 332 334 334 335 335 335 336 336 335 334 334 334 334 333 333 334 334 334 334 333 332 331 330 329 329 329 328 328 327 326 325 324 321 318 316 315 320 322 319 319 318 313 303 298 298 297 298 298 299 299 300
319 320 320 319 320 320 320 318 318 318 317 317 317 317 317 317 317 317 316 316 316 316 317 317 317 317 317 317 318 318 318 319 319 319 320 320 320 320 321 321 324 327 328 329 331 332 331 331 333 334 334 335 336 335 334 334 333 333 333 333 333 333 332 332 332 332 331 330 330 329 329 328 328 327 326 325 324 323 321 318 316 316 320 321 318 318 316 309 301 297 297 297 297 297 298 299 299
320 320 320 318 318 319 319 318 318 318 317 317 317 317 317 317 317 316 316 316 316 316 315 316 316 316 317 316 317 318 317 318 318 318 319 319 319 319 319 320 321 324 327 328 330 331 329 330 332 333 333 334 335 334 334 334 333 333 333 332 333 332 332 332 331 331 331 329 330 329 328 328 327 327 325 324 323 322 321 319 318 318 320 320 317 316 315 308 300 298 297 297 297 297 298 299 299
319 318 317 317 318 318 318 318 318 317 317 317 317 317 317 317 317 317 317 316 317 317 316 316 316 316 317 317 317 317 316 317 316 317 318 318 319 319 318 319 320 321 326 329 328 329 329 329 330 331 333 334 334 334 334 333 333 333 333 332 332 333 332 332 331 331 331 330 330 329 328 328 327 326 324 323 322 321 320 320 319 319 320 320 316 316 317 311 303 299 297 296 297 297 298 299 299
318 316 316 317 317 318 318 318 317 317 317 317 316 317 316 316 317 317 316 317 317 317 318 317 317 317 317 316 316 316 316 316 317 317 317 317 318 319 318 318 319 320 323 327 327 327 328 328 327 329 331 332 334 334 333 333 333 332 332 332 332 332 332 332 331 331 330 330 329 329 328 327 326 326 324 323 322 320 320 320 319 319 320 320 317 316 317 312 304 298 296 296 297 297 298 298 299
317 317 316 316 317 318 317 317 317 317 317 316 316 316 316 316 316 316 315 316 316 316 317 317 317 317 316 316 316 316 316 316 317 317 317 317 317 318 318 318 319 320 321 323 325 326 326 326 325 327 328 329 332 333 332 332 332 331 331 332 331 331 332 332 331 330 330 329 328 328 327 326 326 326 324 323 321 320 320 320 319 320 320 320 317 316 314 309 303 298 296 297 297 297 298 298 298
316 316 317 316 316 317 316 316 316 317 316 316 315 315 316 316 315 315 315 315 316 316 316 316 316 315 315 315 316 315 315 316 316 317 316 317 317 318 318 318 319 320 320 321 323 325 325 325 325 325 325 327 330 331 331 331 331 331 331 331 331 330 330 331 330 329 329 328 327 327 327 326 326 325 324 322 321 319 319 319 319 319 319 317 315 313 310 306 301 298 297 296 296 297 297 298 298
315 315 315 315 314 314 315 315 315 315 315 315 315 315 315 315 314 314 315 315 315 315 315 315 315 315 315 315 315 315 315 315 316 316 316 316 317 318 318 318 319 319 319 319 320 323 323 324 325 325 324 325 327 329 329 330 331 330 330 330 330 330 329 330 330 330 329 327 327 327 326 326 326 325 323 322 320 318 318 318 317 317 316 315 312 310 307 304 300 298 297 296 296 297 297 298 297
314 314 313 313 314 314 314 314 314 315 315 314 314 314 314 314 313 314 315 315 315 315 315 315 314 314 315 315 315 315 315 316 316 316 316 316 316 317 317 318 318 318 318 318 318 320 322 323 324 325 325 325 325 327 328 328 329 329 329 329 330 330 329 329 329 329 329 327 326 326 325 325 325 324 323 321 319 317 316 316 315 315 314 312 310 308 305 302 300 298 297 297 297 297 297 298 297
313 312 312 313 314 314 315 315 315 315 315 313 313 313 314 314 315 315 315 316 316 315 315 314 314 314 314 314 315 315 315 315 316 316 316 316 315 315 315 316 316 317 318 318 317 317 320 322 323 323 325 325 324 326 327 327 328 328 328 329 329 330 329 329 329 329 328 327 326 324 324 324 324 324 323 321 319 316 315 314 313 312 311 310 308 306 304 301 299 298 297 297 297 297 297 298 296
312 313 313 313 314 315 316 316 314 314 314 312 312 312 314 316 317 317 316 316 315 314 314 314 314 314 314 314 314 314 315 315 315 316 315 315 315 315 315 315 314 315 316 317 318 318 319 320 322 323 324 325 324 325 326 327 327 328 328 328 329 329 329 328 328 328 327 326 325 324 323 323 324 324 323 321 319 316 313 312 311 310 309 308 307 305 303 301 299 297 296 296 297 297 297 297 296
313 314 314 314 314 315 316 315 313 313 313 311 312 311 314 316 317 317 316 315 314 314 314 314 314 314 314 314 314 314 314 315 315 315 315 315 315 314 314 315 313 313 313 315 317 318 318 318 320 320 321 323 324 325 326 326 327 327 327 327 328 328 328 328 328 327 327 326 324 323 322 322 323 323 322 321 319 316 313 311 310 309 308 307 306 304 302 300 298 297 296 296 296 296 297 296 295
314 314 314 315 315 315 318 316 313 314 312 311 312 312 314 316 316 316 316 315 314 314 313 314 314 314 314 314 314 315 314 315 315 315 315 314 314 314 314 314 313 313 312 313 315 316 317 317 318 318 318 320 323 325 325 325 326 326 326 327 327 327 327 327 327 326 326 325 323 323 322 322 322 322 322 321 319 317 313 311 309 308 307 305 304 303 301 300 298 296 295 296 296 296 297 295 296
316 315 314 316 316 316 318 317 315 315 313 312 312 312 314 315 315 315 314 314 314 313 314 313 314 314 314 314 314 314 315 315 315 315 315 314 314 313 313 313 312 312 312 312 313 315 316 316 316 317 318 319 322 324 324 325 325 325 325 325 325 326 326 326 326 325 325 324 323 322 321 321 322 322 322 320 319 317 314 311 309 307 306 304 303 302 301 300 298 297 295 296 296 297 297 296 296
317 317 316 316 317 316 316 317 317 315 313 313 313 312 312 313 313 314 313 314 314 313 314 313 314 314 314 315 314 314 314 314 314 315 315 314 313 312 312 312 312 311 311 311 311 312 314 314 316 316 317 319 320 322 323 324 324 324 324 324 324 324 324 325 324 324 323 323 322 321 320 320 320 321 321 320 319 317 314 311 308 307 305 304 303 301 300 299 298 297 296 296 296 297 297 296 297
316 317 316 316 317 316 315 316 317 316 314 314 314 313 313 314 314 314 313 314 314 313 314 314 314 314 315 315 315 315 314 315 315 315 315 313 312 311 311 311 311 311 311 310 310 310 312 313 314 315 315 316 318 320 322 323 323 323 323 323 323 322 323 323 323 322 322 321 321 320 319 319 319 319 319 319 319 317 314 311 308 306 305 303 302 301 300 299 298 297 296 296 297 297 297 296 297
317 317 315 316 315 316 316 317 317 316 314 314 314 314 313 314 313 313 314 313 314 314 314 314 314 315 315 316 316 315 315 315 315 314 312 311 310 309 309 310 310 310 310 309 309 309 310 311 313 314 314 314 316 318 320 321 322 322 322 321 321 321 321 320 321 321 320 320 319 318 318 317 317 318 318 318 317 317 314 311 308 306 304 303 301 300 299 298 298 297 297 296 297 297 297 297 297
317 316 316 316 315 315 316 317 317 313 312 314 313 313 313 313 313 313 314 314 314 314 315 315 315 315 316 316 316 315 314 314 313 311 309 308 308 307 307 307 307 308 307 307 308 308 309 310 311 312 313 313 314 316 318 320 320 320 320 320 320 320 319 319 319 319 319 318 317 316 316 316 316 316 316 316 316 315 313 310 307 305 304 302 300 299 298 298 298 297 297 296 296 297 297 297 297
316 316 315 315 315 316 316 317 316 312 311 313 313 313 313 313 314 314 314 314 315 315 315 316 316 316 316 315 314 313 312 311 310 308 308 307 306 305 305 305 305 305 305 305 306 307 307 308 309 310 312 312 312 314 316 318 318 318 319 319 319 319 318 318 318 317 317 316 315 314 314 314 314 314 314 315 315 314 312 310 307 305 304 301 300 299 298 298 297 297 297 296 296 296 297 297 296
315 315 316 316 316 316 316 316 314 312 311 313 313 312 313 313 314 316 315 315 316 316 316 316 316 315 315 314 312 311 310 309 308 307 306 306 305 304 304 304 304 304 304 304 305 305 306 306 307 308 310 311 311 311 313 315 316 317 317 317 317 317 317 316 315 315 314 314 313 312 313 313 313 313 313 313 313 313 312 310 306 304 304 301 299 298 298 298 297 297 297 296 296 296 297 297 296
315 315 316 316 316 316 316 315 314 313 313 313 313 312 313 315 316 316 316 315 316 317 316 316 315 315 313 312 310 309 308 307 306 305 305 305 304 303 303 303 303 303 303 303 303 304 304 305 306 307 308 309 309 309 310 312 314 315 315 314 314 314 313 312 312 312 311 311 310 310 311 311 311 311 311 312 312 312 311 310 307 305 304 302 299 298 298 297 297 296 296 296 296 296 296 297 296
316 317 316 316 316 316 315 315 314 313 314 312 312 314 315 316 317 316 315 316 317 317 316 315 314 313 311 310 309 308 307 306 305 304 303 303 303 303 302 302 302 302 302 302 302 303 304 304 305 306 307 307 307 308 308 309 311 312 312 311 310 311 310 309 309 309 309 309 309 309 309 309 309 310 310 310 310 310 310 309 307 305 304 302 299 298 297 297 296 296 296 296 296 296 296 296 296
317 317 317 317 316 315 314 314 314 314 315 313 312 316 317 316 316 317 316 317 317 317 315 313 312 310 310 309 308 307 306 305 304 303 302 302 302 302 301 301 301 301 301 301 301 302 302 303 303 304 305 305 305 306 306 307 308 309 309 310 309 310 310 310 309 309 309 308 308 308 307 307 307 308 308 308 308 308 308 308 306 305 304 302 300 298 297 297 297 296 296 296 296 296 296 296 296
317 317 316 315 314 314 314 314 314 315 316 314 313 316 317 316 316 318 318 317 317 316 313 311 310 309 308 308 307 306 305 304 303 302 301 301 301 301 301 300 300 301 300 300 301 301 301 301 301 302 303 303 304 305 305 305 306 307 307 308 308 308 308 309 308 308 307 307 306 306 306 305 305 305 306 306 306 306 307 307 306 305 303 302 300 298 297 297 297 296 296 296 296 296 296 296 296
317 315 314 314 313 314 315 314 314 315 315 315 314 315 317 317 316 318 318 317 317 316 313 311 309 308 308 306 306 305 304 303 302 301 301 300 300 300 300 299 299 299 300 300 300 300 300 299 300 301 301 302 302 303 304 304 305 305 306 306 306 307 307 307 307 306 305 305 304 304 304 304 303 303 304 304 305 304 305 305 305 304 303 302 300 298 297 297 297 297 296 296 295 296 296 296 296
316 313 312 313 312 313 314 314 314 314 315 316 316 315 318 317 316 317 317 315 316 315 312 310 308 308 307 306 305 304 303 302 302 301 300 300 300 300 299 299 298 298 299 299 299 299 299 299 299 299 299 300 300 301 302 303 303 304 304 305 305 305 305 305 305 304 304 303 303 303 303 302 302 302 302 302 303 303 303 303 303 303 302 301 300 298 298 297 297 297 296 296 295 296 296 296 296
313 312 312 313 313 314 314 313 314 314 316 318 317 316 318 318 315 315 316 315 316 315 311 309 308 308 306 306 305 304 303 302 301 300 300 300 300 299 299 298 298 298 298 298 298 298 299 299 299 298 298 299 299 300 300 301 302 303 303 304 304 304 304 304 304 304 304 303 303 302 302 302 301 301 301 301 301 301 301 302 301 302 302 301 300 299 298 297 297 297 296 295 295 295 296 296 297
312 312 313 314 315 314 314 313 313 315 318 318 317 316 317 317 315 314 315 314 315 315 311 308 308 307 306 305 304 303 302 302 301 300 300 300 299 299 298 298 298 298 297 297 297 297 297 298 298 298 298 298 298 298 299 299 300 301 302 302 302 303 303 303 303 303 303 303 303 302 302 301 301 300 300 300 300 300 300 300 300 300 300 300 300 299 298 297 297 296 296 295 295 295 296 296 296
311 312 313 315 317 316 315 314 313 317 320 318 316 316 316 316 315 313 315 314 313 313 311 310 308 307 306 304 303 302 302 301 300 300 299 299 299 299 298 298 297 297 297 297 297 297 297 297 297 297 297 297 297 297 298 298 298 299 299 300 300 301 301 302 302 302 302 302 302 302 302 302 301 300 300 299 299 299 299 299 299 299 299 299 299 299 298 297 296 296 296 296 295 295 295 296 296
311 312 313 316 319 319 319 318 317 319 319 315 314 315 316 316 314 314 315 314 312 310 310 310 308 306 305 303 302 302 301 300 299 299 299 298 298 298 298 297 297 297 296 296 296 296 296 296 296 296 296 296 297 297 297 297 297 297 298 298 299 299 300 300 300 301 301 301 301 301 301 301 301 301 300 299 299 299 298 298 298 299 299 299 298 298 298 297 297 296 296 296 295 295 295 295 295
312 313 315 317 319 322 323 321 320 321 318 314 313 315 315 315 314 315 314 312 309 308 308 308 307 305 304 302 301 301 300 299 299 298 298 297 298 298 297 297 297 296 296 295 295 295 295 295 295 295 295 295 296 296 296 296 296 296 296 297 297 298 298 298 299 299 299 300 300 300 300 300 300 300 300 300 299 299 298 298 298 298 298 298 298 298 297 297 297 296 296 296 295 295 295 294 294
314 315 315 317 319 321 322 321 320 320 319 315 314 315 316 314 314 314 312 308 307 307 306 306 305 303 302 302 301 300 299 299 298 298 297 297 297 297 296 296 296 296 295 295 295 295 295 295 294 295 295 295 295 295 295 295 295 295 295 296 296 296 297 297 297 298 298 298 299 299 299 299 299 299 300 300 299 299 298 298 297 297 297 297 297 297 297 297 296 296 296 296 295 295 295 294 294
315 313 314 316 317 318 319 319 319 319 318 317 315 315 315 314 314 312 309 307 306 305 305 304 303 302 301 301 300 299 298 298 298 297 296 296 296 296 296 296 295 295 295 294 294 294 294 294 293 294 294 294 294 294 294 294 294 294 294 294 295 295 295 296 296 296 297 297 297 297 298 298 298 298 298 299 299 299 298 297 297 297 297 297 297 297 297 296 296 296 296 295 295 295 295 294 294
314 312 314 315 315 316 317 318 318 318 318 317 316 316 314 314 315 313 309 307 306 305 304 303 302 302 301 300 299 298 297 297 297 296 296 296 296 296 295 295 295 294 294 294 294 293 293 293 293 293 292 293 293 293 294 294 294 293 293 293 293 294 294 295 295 295 295 296 296 296 297 297 297 297 297 298 298 298 298 297 297 296 296 296 296 296 296 296 296 296 296 295 295 295 295 294 294
314 314 315 314 314 314 315 316 317 317 317 316 315 316 314 313 315 313 310 308 306 305 304 303 302 301 300 299 298 297 297 296 296 296 295 295 295 295 295 295 294 294 294 294 293 293 292 292 292 292 292 292 292 292 292 292 293 293 293 292 293 293 293 293 294 294 294 294 295 295 295 296 296 296 296 296 297 297 297 296 296 296 296 296 296 296 296 296 296 295 295 295 295 294 294 294 294
313 313 313 313 315 316 315 316 317 317 318 317 315 315 314 314 314 313 312 310 307 305 304 302 301 300 299 298 297 296 296 295 295 295 295 295 295 294 294 294 294 293 293 293 293 292 292 291 291 291 291 291 291 291 291 291 290 291 291 291 292 292 292 292 292 293 293 293 293 294 294 294 294 295 295 295 295 295 295 295 295 295 295 295 295 295 295 295 295 295 295 295 294 294 294 294 294
311 310 311 313 315 315 315 316 316 318 318 317 316 315 314 314 313 313 313 310 307 306 304 302 300 299 298 297 297 296 295 295 295 294 294 294 295 294 294 294 293 293 293 293 292 292 291 291 290 290 290 290 290 290 291 290 290 289 288 288 289 289 290 290 291 291 291 292 292 292 292 293 293 293 294 294 294 294 294 295 295 295 294 294 295 295 295 295 295 294 294 294 294 294 294 294 293
312 310 311 313 313 313 314 315 315 316 316 316 317 316 315 313 313 313 311 309 307 306 304 301 299 298 297 296 296 295 295 294 294 294 293 294 294 294 294 293 293 293 293 292 292 292 291 290 290 290 290 290 289 290 290 290 290 289 287 286 286 287 287 288 288 289 289 289 290 290 291 291 292 292 292 293 293 293 294 294 294 294 294 294 294 294 294 294 294 294 294 294 294 293 293 293 293
314 313 312 313 312 313 314 315 315 315 315 315 316 317 316 312 310 310 309 308 307 305 303 300 298 297 296 296 295 295 294 294 294 293 293 294 294 294 294 294 293 293 293 292 292 291 291 290 289 289 289 289 289 289 289 289 289 289 288 287 286 286 285 286 286 287 287 288 288 289 289 290 290 291 292 292 292 292 292 293 293 293 294 293 293 293 294 294 293 293 293 293 293 293 293 293 293
Wind_Speed
4 4 4 4 5 6 6 4 4 2 3 5 2 2 3 4 3 3 4 4 2 4 6 5 5 5 6 7 7 10 9 8 6 6 4 4 1 1 5 10 10 11 16 16 15 24 26 26 25 23 22 21 20 19 18 17 16 16 15 15 15 14 13 13 13 12 11 11 10 10 9 8 8 7 7 7 6 6 5 5 6 7 7 6 5 6 5 5 4 4 3 3 3 2 1 1 1
3 4 3 3 4 5 3 1 4 2 3 4 1 2 4 2 1 2 6 7 5 4 5 5 5 6 7 8 8 10 7 5 5 7 3 3 1 1 4 9 10 10 14 15 15 23 25 23 25 24 22 21 20 20 18 18 17 16 16 16 15 14 14 13 13 12 11 11 10 10 9 9 8 8 8 8 6 5 4 4 4 6 6 6 6 6 5 5 4 3 2 2 2 2 1 1 1
2 3 3 4 4 4 3 2 4 3 4 3 3 4 3 1 2 4 6 6 5 5 4 4 5 5 7 7 6 7 4 2 3 6 1 0 2 2 3 8 12 11 13 14 14 22 24 22 25 24 22 21 20 20 19 18 17 16 16 15 15 15 14 13 13 12 12 11 10 10 10 10 9 9 9 8 7 5 5 5 5 5 6 6 6 5 5 4 4 3 2 2 1 2 2 3 3
1 2 3 4 3 4 3 3 4 4 4 3 2 5 4 2 4 6 6 5 4 3 3 4 3 2 5 6 5 5 5 4 3 4 3 2 3 2 3 9 13 12 13 14 14 19 22 21 26 26 23 22 20 20 19 19 18 17 16 15 15 15 14 13 13 13 12 12 11 11 11 10 10 10 9 8 7 6 5 6 6 5 5 6 6 5 4 3 3 2 2 3 2 4 4 5 6
0 2 3 5 3 2 2 3 3 4 4 3 3 3 4 4 5 7 6 6 4 3 3 3 3 2 4 6 4 4 4 5 2 1 3 2 1 1 3 8 13 13 13 15 15 17 19 21 25 27 25 22 21 20 20 19 18 17 17 16 15 15 15 14 13 13 13 12 12 12 11 11 11 10 9 9 8 7 6 6 6 6 5 5 5 4 4 3 2 2 2 2 4 6 6 7 9
2 2 2 4 2 2 3 4 3 4 2 3 5 4 6 6 6 7 7 7 2 1 3 3 4 3 5 4 4 5 5 5 2 1 1 1 3 3 4 8 12 13 13 15 16 15 18 21 23 26 26 24 22 20 20 19 18 17 16 16 15 15 15 14 14 14 13 12 12 12 12 12 11 11 10 10 9 9 9 7 6 8 7 4 4 3 3 2 2 2 2 3 7 8 8 10 10
3 2 3 3 2 1 4 4 4 4 2 3 5 6 7 8 7 7 8 6 1 3 2 2 3 6 5 1 4 5 4 4 3 2 2 2 3 3 5 7 10 11 12 15 16 15 17 21 22 25 27 25 23 21 21 20 19 18 17 16 14 14 14 15 15 14 13 13 13 13 13 12 11 11 10 9 10 10 10 9 7 8 8 6 6 4 3 3 3 3 3 4 8 10 10 10 9
4 2 1 3 3 2 4 4 4 4 1 2 5 6 7 8 8 7 8 6 2 0 3 3 2 5 2 1 3 4 5 5 4 6 5 6 5 5 5 6 9 10 12 14 15 15 17 21 22 25 28 27 24 22 22 22 20 19 18 17 15 15 15 15 15 14 14 14 15 14 14 13 11 11 10 9 10 10 10 11 10 9 9 7 7 5 4 4 4 4 3 5 10 10 9 8 5
3 3 1 3 3 3 4 5 4 4 3 4 5 6 6 7 6 5 7 5 4 3 1 1 2 5 3 2 6 2 6 4 5 7 8 9 8 7 6 7 8 8 11 13 14 14 17 21 22 25 29 28 26 24 23 22 21 20 19 18 17 16 16 16 15 15 16 15 15 14 14 13 12 11 10 9 9 8 9 10 10 10 9 8 7 6 6 6 6 5 5 8 10 9 6 4 1
3 2 2 3 3 4 4 4 2 1 2 4 5 6 6 4 5 4 6 6 3 3 1 1 4 8 8 7 8 1 5 3 2 4 5 8 7 6 6 9 10 8 11 13 13 14 16 21 21 24 29 29 27 25 24 24 23 22 20 19 18 17 16 16 16 17 17 16 15 14 14 13 12 12 11 11 10 7 8 8 9 10 10 9 8 8 8 8 7 6 7 10 9 6 3 2 2
3 2 2 3 4 4 3 3 3 3 4 5 4 2 3 2 3 3 4 5 3 4 1 3 4 6 9 9 5 1 4 1 1 1 3 6 6 6 5 9 12 10 11 13 15 14 14 20 22 24 29 29 28 27 25 25 24 23 21 20 19 18 18 18 18 18 17 16 15 14 14 13 12 11 11 11 11 10 10 9 8 10 9 9 10 10 9 8 8 7 9 9 6 4 4 3 2
3 2 2 4 4 4 4 5 5 6 7 5 1 4 2 1 2 4 3 6 5 7 4 5 1 4 7 8 4 4 7 3 4 3 5 3 4 7 6 7 12 12 11 13 16 15 14 17 20 24 29 28 28 27 26 25 25 24 23 21 20 19 19 19 19 18 17 17 16 15 14 13 12 12 12 11 12 13 12 10 10 11 10 10 10 10 9 9 9 9 10 7 6 5 4 3 3
3 1 3 4 3 4 5 6 5 6 6 1 3 5 2 1 3 4 5 8 9 10 3 3 2 5 8 8 6 3 7 6 3 5 5 3 3 6 7 6 10 11 11 14 16 14 14 14 16 22 28 29 28 27 26 25 25 24 24 23 22 21 20 20 19 19 18 18 17 16 15 15 15 15 15 14 14 14 12 11 11 11 11 11 10 10 9 9 10 10 9 7 7 6 4 4 3
3 2 4 4 2 5 6 5 5 5 4 3 5 4 2 3 2 3 6 9 10 7 3 1 4 5 8 7 6 1 5 3 2 4 4 5 6 6 8 8 10 12 12 14 15 14 15 15 15 20 25 27 26 27 26 25 25 25 25 24 23 22 22 21 21 21 20 19 18 18 17 18 17 16 16 16 16 15 13 13 12 12 11 11 11 10 10 10 11 11 10 8 7 6 5 4 3
3 2 3 5 4 5 4 4 5 5 5 2 4 3 1 4 2 3 5 7 9 4 2 3 3 3 6 6 5 4 6 3 1 1 2 6 7 7 10 10 11 14 15 15 15 15 15 16 16 19 22 23 23 24 24 25 26 25 25 25 24 24 23 23 24 23 22 21 20 20 19 19 17 17 17 17 17 15 15 15 13 12 12 12 11 11 11 11 12 12 10 9 7 6 5 3 3
2 3 3 5 5 5 3 3 4 4 4 2 5 4 4 4 4 5 2 3 9 6 5 6 6 7 9 11 9 3 4 3 1 3 2 4 7 8 10 11 10 12 16 17 16 17 18 18 18 19 21 22 23 22 22 22 25 27 26 25 25 25 25 25 25 24 23 22 21 21 20 19 18 18 18 18 19 17 16 16 14 13 12 12 12 12 12 11 12 12 10 9 7 5 4 2 1
2 3 4 5 5 5 3 3 3 3 5 4 3 3 6 6 3 4 1 3 12 12 10 9 8 10 12 15 12 3 5 8 5 4 3 5 6 7 9 10 10 11 15 18 19 19 19 20 20 20 20 22 23 24 23 22 24 26 27 27 27 27 26 26 25 24 23 22 22 21 21 21 19 19 19 19 20 19 18 16 15 13 12 13 13 13 13 12 12 12 10 9 6 5 3 2 1
3 4 5 5 5 5 3 4 5 5 7 7 4 2 6 9 5 2 1 7 12 13 14 13 12 14 16 19 16 10 12 11 6 6 7 8 7 8 9 10 12 12 14 17 19 20 20 21 22 22 21 22 23 23 24 23 24 26 29 29 28 29 28 27 27 25 25 23 24 24 22 21 20 18 18 19 19 19 19 18 16 14 13 14 14 14 13 12 13 12 11 9 6 5 4 2 1
5 4 6 6 7 6 4 6 9 8 9 10 9 8 8 10 9 4 6 12 11 13 14 12 14 14 17 19 18 16 14 11 9 10 11 12 11 11 11 11 13 14 15 16 19 21 21 21 23 24 23 23 24 24 23 23 23 25 27 27 27 29 29 29 28 26 25 24 25 27 24 20 19 17 17 19 20 20 20 18 17 16 15 16 16 14 12 12 14 14 11 9 8 7 5 3 2
6 6 6 7 8 9 7 7 9 10 11 12 11 10 11 10 10 7 9 13 12 13 13 12 14 12 11 12 13 14 13 13 11 12 13 15 15 15 14 13 13 15 17 17 17 19 22 22 23 25 25 23 24 24 24 22 23 24 24 25 27 26 26 28 28 26 25 24 25 26 24 21 20 18 18 21 21 19 19 19 18 17 17 18 18 14 13 14 15 15 12 10 10 8 6 5 4
4 6 8 8 6 8 8 9 10 10 9 10 11 11 13 11 8 8 10 12 11 11 12 13 15 13 12 12 12 12 11 12 12 14 14 16 17 17 16 16 15 14 15 16 16 17 23 24 23 23 24 24 25 25 25 23 23 24 24 25 27 26 24 26 27 26 25 25 25 24 23 22 21 19 20 23 20 18 18 19 19 19 18 18 19 15 14 17 17 16 14 12 12 9 8 7 5
5 7 11 12 10 10 10 11 8 6 6 8 11 12 12 9 7 10 12 12 10 11 13 15 18 17 16 15 13 12 10 12 14 14 15 17 18 18 17 16 16 14 13 14 16 18 22 25 24 23 24 25 26 26 25 24 24 24 24 25 26 26 25 24 25 26 26 25 26 25 24 24 22 19 20 22 20 17 17 18 19 20 18 18 20 17 15 18 18 17 16 14 13 11 10 9 8
6 9 11 12 12 12 11 10 3 2 8 10 11 12 12 12 12 12 14 16 15 15 17 19 20 19 18 16 13 12 12 13 14 16 17 17 18 18 18 16 15 14 13 14 16 17 19 23 25 24 24 25 26 26 24 23 24 24 25 26 26 25 24 25 25 25 25 25 27 26 25 25 24 20 19 21 21 18 17 18 19 20 19 19 20 18 16 18 20 19 17 16 15 14 12 10 9
7 10 12 12 12 12 12 11 5 4 11 12 11 12 14 16 14 13 16 17 17 18 19 20 19 18 18 15 13 14 14 14 16 18 18 17 19 19 17 16 15 14 14 14 15 17 19 23 25 25 25 25 26 27 25 24 23 24 24 25 26 25 24 25 25 25 24 25 27 28 28 25 24 21 19 20 21 19 18 18 18 19 19 19 20 18 18 21 22 20 19 18 17 15 12 11 9
11 12 12 11 11 10 11 12 10 9 11 11 11 14 17 18 15 15 20 21 19 19 19 19 18 16 15 14 14 14 14 15 16 18 18 18 19 18 16 15 15 15 16 17 16 17 20 22 26 27 27 27 26 27 27 25 24 24 25 25 25 26 25 24 25 25 24 25 27 29 30 26 22 22 20 21 21 20 19 19 18 19 18 18 19 18 20 24 23 21 21 19 18 15 12 11 10
6 8 10 10 10 11 12 13 13 12 9 9 12 17 18 17 14 15 18 18 17 17 17 16 15 15 14 14 14 14 14 15 15 16 16 16 16 15 15 14 15 16 19 20 18 19 21 22 25 28 29 28 26 26 28 27 26 25 26 26 26 27 27 24 24 25 25 26 28 31 33 28 23 22 22 21 21 21 20 19 19 18 18 18 19 19 21 24 22 21 21 20 18 15 13 12 11
5 8 11 12 14 15 14 15 15 13 12 11 13 17 18 15 12 11 12 13 11 11 13 12 13 15 15 14 14 14 15 15 16 16 14 13 12 13 13 14 16 19 21 21 20 21 22 23 25 27 29 29 27 27 29 29 28 27 26 26 25 25 26 25 24 24 24 26 29 32 36 33 26 22 23 23 21 21 20 20 20 19 18 19 22 24 24 24 22 21 21 20 18 16 15 14 12
8 10 12 15 17 15 15 17 16 13 10 9 11 16 18 14 11 13 15 14 12 11 12 12 13 15 16 16 15 12 13 15 16 15 13 12 11 12 13 14 17 20 22 23 23 22 21 22 24 25 27 28 29 29 30 30 29 28 27 25 25 25 25 25 24 23 24 25 29 33 36 37 33 25 24 26 24 22 21 21 21 20 20 22 26 27 25 24 21 20 20 20 18 17 16 15 14
7 8 11 15 15 15 17 16 12 10 6 3 5 11 14 12 11 16 17 13 11 11 12 13 14 15 15 15 14 12 12 14 15 13 13 13 12 14 15 15 16 18 19 19 22 22 20 21 23 24 25 27 31 30 29 30 28 26 26 25 25 24 24 25 25 24 24 24 28 35 37 38 37 30 27 29 28 25 24 24 24 23 24 25 27 27 27 25 23 21 22 21 19 18 18 17 16
7 9 8 10 12 11 12 9 3 5 5 7 4 7 9 13 13 14 10 5 7 11 14 16 15 14 14 14 13 13 14 13 14 15 15 15 14 14 16 17 16 16 16 14 15 18 19 20 21 22 23 26 30 30 27 26 25 24 24 23 23 23 24 25 25 24 23 23 28 35 38 38 38 36 31 31 31 28 27 28 28 28 28 27 27 28 28 27 25 25 24 22 21 19 18 18 17
8 9 6 6 8 7 5 4 6 4 4 9 7 6 8 14 16 13 7 4 7 12 17 19 16 14 13 13 13 14 13 13 14 17 17 16 15 14 15 16 15 14 14 13 13 14 15 17 19 21 23 25 26 26 25 23 22 22 21 20 21 21 22 23 23 23 22 23 28 34 38 39 39 38 35 33 33 32 29 30 30 30 29 28 28 29 29 28 27 26 25 23 21 19 18 18 16
8 8 6 6 7 8 7 5 9 7 2 10 9 6 7 12 14 13 11 11 12 15 19 21 17 16 15 13 12 13 12 12 14 15 15 13 11 11 13 14 13 12 12 12 12 12 13 14 18 20 22 23 23 23 23 21 18 18 18 18 18 18 20 20 20 21 21 21 26 32 36 39 40 39 37 35 35 34 31 31 31 30 30 30 30 30 30 29 27 26 25 24 23 20 17 17 15
7 7 7 8 8 9 7 4 6 5 2 9 11 7 8 9 13 17 17 18 17 17 21 22 18 17 16 12 11 11 11 12 11 11 11 10 10 11 13 13 13 12 11 11 10 10 11 12 15 18 19 19 20 21 21 20 17 15 16 16 16 16 17 18 17 19 20 20 24 28 33 37 41 40 39 38 36 35 33 31 31 31 32 33 32 32 31 29 27 26 26 24 23 21 19 18 15
6 7 7 9 10 9 8 7 4 3 5 7 10 10 12 12 14 19 19 18 17 18 20 20 17 16 14 12 11 10 10 10 8 10 12 14 15 16 15 14 14 13 12 10 9 8 9 9 11 14 15 15 16 17 18 18 17 15 15 15 16 16 17 17 16 16 17 19 20 23 28 34 38 40 40 39 37 35 32 31 30 31 33 34 33 32 32 29 27 27 27 25 24 22 21 21 17
10 9 8 10 10 11 12 11 8 4 7 10 10 12 14 15 14 16 19 19 18 18 17 17 17 16 14 11 8 8 8 8 9 12 15 17 19 19 17 16 15 14 12 11 10 7 7 7 6 9 12 12 13 14 14 15 15 15 14 14 15 16 16 17 17 16 16 17 17 19 24 30 34 37 39 39 38 35 32 30 30 31 33 34 32 32 31 29 26 27 28 27 24 21 21 21 18
15 12 11 12 11 12 13 14 12 9 10 11 12 14 14 14 15 15 19 20 19 17 15 15 15 14 12 8 6 7 7 8 11 17 21 21 21 21 18 17 17 16 16 15 13 10 7 6 5 6 8 10 11 12 12 12 13 13 13 13 14 15 15 16 17 20 19 17 15 16 21 26 28 33 36 37 37 35 33 30 30 30 32 33 32 32 32 30 29 29 29 29 25 20 18 19 19
15 12 12 13 12 12 12 15 12 6 4 10 11 14 15 14 16 17 19 19 18 17 15 14 13 11 9 7 6 8 9 10 15 20 22 21 21 20 18 18 19 19 20 20 18 15 11 9 6 5 5 7 9 10 11 12 12 12 12 13 13 13 13 13 16 19 19 17 14 14 18 22 24 28 32 34 35 34 32 30 29 29 31 32 32 32 31 29 30 30 28 29 28 24 20 19 21
14 11 11 11 10 11 12 15 11 4 3 9 10 14 16 16 18 18 16 15 15 14 13 11 11 10 7 7 9 10 10 11 15 17 19 20 20 20 18 18 20 21 21 22 21 19 16 13 10 7 4 4 7 8 9 9 10 10 10 10 10 9 9 9 11 12 14 15 12 13 16 19 22 25 28 32 34 34 33 29 27 28 31 32 31 31 30 29 30 29 29 30 29 28 24 22 25
12 9 9 9 8 11 11 9 3 2 3 8 12 13 13 16 20 17 10 8 11 9 8 9 8 7 6 9 10 12 11 12 14 15 16 18 20 20 20 20 21 21 21 22 22 21 19 17 15 11 7 3 4 5 6 6 7 7 7 5 5 5 5 6 7 7 9 11 11 15 19 19 22 24 27 30 32 34 34 31 27 28 31 32 31 31 30 30 31 31 32 32 30 26 22 23 28
8 7 7 8 8 9 8 4 1 4 8 9 12 11 10 14 15 10 6 6 8 5 4 4 5 8 10 12 12 12 12 12 13 14 15 17 19 22 23 22 22 22 23 24 24 23 21 20 18 14 9 6 4 2 3 3 2 3 4 4 4 5 5 5 6 7 9 11 12 16 20 22 23 24 26 29 32 34 35 34 31 30 32 33 33 33 32 33 35 34 34 33 31 26 20 22 28
8 8 8 9 10 10 9 8 7 10 8 4 8 9 7 6 4 5 4 6 11 3 2 4 10 12 13 14 13 12 13 12 13 14 14 15 18 22 23 23 22 23 24 24 24 24 23 22 21 16 12 9 7 5 3 2 1 1 3 4 5 6 7 6 5 7 9 12 12 13 16 19 21 23 25 27 30 34 35 35 34 32 34 35 36 36 35 35 36 37 36 33 33 30 24 24 27
7 8 10 11 10 10 10 10 8 8 4 2 4 8 5 1 4 8 5 8 11 2 9 11 12 12 12 13 11 11 11 11 12 13 13 14 17 21 23 24 24 24 25 24 24 25 25 24 23 19 15 13 11 9 6 3 1 2 1 3 4 4 6 6 6 6 6 7 9 10 12 15 18 21 23 25 27 31 34 34 33 33 35 36 37 38 35 35 36 38 38 35 34 33 28 25 26
6 3 2 5 6 7 7 7 6 5 5 1 2 5 6 4 8 10 7 11 9 5 13 12 11 10 11 11 9 10 10 10 11 13 14 15 18 20 22 24 24 24 24 23 23 24 25 25 23 20 18 17 15 13 10 7 5 3 3 3 4 4 5 5 4 4 4 4 5 7 9 11 15 18 20 22 24 27 31 33 34 34 35 35 36 36 34 33 37 39 39 37 37 34 31 28 28
4 2 3 2 4 6 5 5 5 5 8 7 6 7 7 7 6 5 7 10 5 7 11 12 11 10 11 12 11 11 11 10 10 13 14 15 17 18 19 21 21 21 21 23 23 23 24 24 23 21 19 19 18 17 14 12 9 7 5 4 4 4 5 5 4 3 3 4 4 6 7 9 12 15 17 20 22 24 27 30 33 34 36 35 33 34 33 31 33 37 38 38 37 35 34 31 29
2 3 3 3 4 6 4 5 6 6 7 6 6 8 6 7 3 3 5 7 6 9 10 10 10 11 12 12 12 11 10 9 11 12 13 14 15 16 17 18 19 20 22 23 22 21 22 22 23 22 20 20 20 19 18 15 13 10 8 7 6 5 5 5 5 4 3 3 4 5 7 7 9 13 15 17 19 21 24 27 30 32 34 35 33 33 34 31 31 34 37 38 37 35 35 33 30
1 2 2 2 4 6 5 6 6 6 7 8 7 10 5 7 3 3 3 5 7 9 10 9 9 11 11 10 10 9 6 7 10 12 12 13 14 14 15 17 19 21 22 22 21 22 22 23 24 25 22 20 21 21 20 18 15 13 11 10 9 8 7 7 6 6 5 5 5 5 6 7 8 10 12 15 18 20 22 24 27 30 32 33 32 32 33 33 32 34 37 39 39 36 34 34 32
1 1 4 5 7 7 5 5 4 5 8 8 7 13 9 6 2 3 1 1 2 6 9 9 9 10 10 9 8 7 5 6 9 11 11 12 13 14 16 18 20 21 21 22 21 22 23 24 24 25 24 22 22 23 22 19 16 14 13 11 10 9 8 7 7 7 7 7 7 6 6 7 8 9 10 12 16 19 20 21 23 27 29 29 30 31 33 34 33 34 36 38 39 37 34 34 33
2 3 4 6 6 5 4 4 4 6 7 3 2 8 9 7 3 1 1 2 2 5 7 10 11 10 9 8 6 6 5 6 9 9 8 9 11 14 17 18 19 20 21 21 21 20 21 23 23 25 26 25 25 24 23 20 17 15 14 13 11 10 9 8 7 8 8 8 8 8 8 8 7 8 9 11 13 16 18 19 20 23 24 26 28 30 33 34 33 34 36 37 38 39 37 35 34
3 3 3 5 6 4 5 5 4 7 4 2 3 2 6 8 7 6 4 3 4 6 8 10 12 11 9 7 6 5 4 6 9 8 7 7 9 13 15 16 17 19 20 20 20 19 19 21 22 24 26 26 26 26 24 21 19 17 15 13 12 11 10 9 8 8 8 8 8 8 8 9 9 9 9 10 12 15 17 18 20 22 23 25 26 28 31 32 32 33 35 37 37 39 40 38 37
6 4 4 4 5 6 8 7 7 8 3 4 3 1 5 7 7 10 8 5 9 10 10 10 12 12 9 7 6 5 5 7 8 7 7 9 10 12 14 15 15 16 17 17 18 18 18 20 22 23 24 24 25 25 25 23 21 19 17 15 14 12 12 11 9 9 9 9 9 9 9 9 10 11 11 11 11 13 16 18 20 22 23 24 25 27 29 31 31 32 34 36 37 39 41 41 40
7 4 3 5 5 6 8 7 8 9 7 3 2 2 4 5 2 3 6 10 11 9 10 11 11 10 8 7 6 5 7 8 7 8 9 9 10 12 12 13 14 14 15 15 16 17 17 18 20 20 21 21 22 23 24 24 22 22 22 20 18 15 13 12 10 10 10 9 9 9 9 10 11 11 12 12 12 11 15 18 19 21 23 23 24 26 27 29 31 32 33 35 36 38 39 41 41
4 2 3 5 5 7 8 8 9 8 9 7 4 4 6 6 1 7 11 11 11 10 10 10 9 9 7 6 6 6 7 8 7 8 8 9 11 11 11 12 12 12 14 15 15 16 16 17 17 18 18 18 18 19 20 21 21 23 25 25 23 20 17 15 13 12 12 11 10 10 10 10 11 12 12 12 12 11 14 18 20 21 23 23 23 24 25 28 30 31 33 34 35 36 38 40 41
2 3 4 2 2 5 7 9 8 7 10 8 6 8 8 9 9 6 12 11 10 10 9 8 8 7 7 6 7 7 7 7 7 7 7 8 9 10 11 11 11 12 13 14 14 14 15 15 16 16 17 17 17 16 17 17 18 19 22 23 23 21 19 17 15 15 14 12 11 10 10 10 10 11 12 12 13 12 14 17 19 20 21 22 23 24 25 27 28 30 33 34 34 35 37 39 40
2 4 3 2 0 3 4 7 7 9 11 8 7 13 11 9 7 4 11 9 8 8 8 8 7 7 7 7 6 6 6 6 6 7 7 7 9 10 10 10 11 12 12 12 13 13 13 14 15 15 16 16 16 16 15 16 15 15 15 17 18 18 18 18 18 18 17 15 14 13 11 12 11 12 13 13 13 14 15 17 18 19 20 21 22 23 25 26 27 29 31 33 34 34 35 38 39
3 3 2 1 4 4 5 7 6 8 11 8 10 14 12 9 9 6 6 9 10 8 7 7 6 6 6 6 6 6 5 4 5 5 5 5 7 8 9 9 10 10 11 11 12 13 13 14 14 14 14 13 14 14 14 15 17 16 15 16 16 17 18 20 21 21 20 20 19 17 16 15 14 13 13 13 14 15 16 16 17 19 20 21 22 23 24 26 27 29 30 31 32 33 34 35 37
1 3 2 3 4 5 6 7 5 7 9 8 10 11 9 8 8 9 3 9 12 9 7 6 6 6 4 4 4 3 3 3 3 3 3 3 4 4 5 6 7 7 8 8 9 11 12 12 13 12 12 13 14 14 13 14 16 18 21 21 20 20 20 20 20 20 22 22 22 22 21 20 18 16 15 15 15 15 16 16 17 18 19 20 21 22 24 25 26 28 29 30 31 32 34 35 35
4 4 5 5 3 2 5 6 6 7 9 9 9 9 8 5 4 5 6 10 10 9 9 7 5 6 4 3 2 1 2 2 1 1 1 2 2 3 3 4 5 5 5 5 6 7 7 8 9 10 11 12 14 14 13 13 14 16 21 24 24 23 22 21 20 20 21 23 23 24 24 23 22 20 18 17 16 15 15 15 16 17 18 19 21 22 23 24 25 27 28 29 30 31 32 34 34
6 6 6 7 7 5 6 8 7 6 7 8 9 10 8 2 5 6 7 7 6 8 9 8 7 6 5 4 3 2 1 1 1 1 1 2 2 3 3 3 4 4 5 5 4 5 5 6 8 9 11 12 12 13 13 14 14 14 16 19 22 24 24 24 23 22 22 23 22 23 23 24 23 23 22 20 18 17 16 16 16 17 18 19 20 21 22 23 25 27 28 29 30 30 31 33 34
Wind_Direction
360 344 335 324 306 293 275 276 281 217 244 270 270 302 72 57 353 311 348 23 20 51 20 329 310 291 286 309 322 320 300 285 310 322 348 92 52 50 175 201 174 150 162 159 169 184 184 185 182 178 179 180 181 180 181 181 183 183 182 178 177 175 174 175 174 177 179 180 182 182 180 177 177 180 185 180 176 177 182 180 171 168 164 160 150 145 144 137 137 134 124 133 149 175 169 94 90
357 328 307 290 278 278 291 311 288 260 255 273 116 32 41 62 267 3 13 6 2 13 351 314 300 276 273 290 290 290 286 267 290 316 13 123 227 86 210 204 173 154 164 161 167 182 182 185 184 180 183 182 183 184 184 184 185 184 183 181 179 176 178 179 179 182 183 185 184 185 185 184 183 184 184 177 173 173 173 173 162 161 164 156 146 143 133 126 126 129 138 142 155 214 222 229 270
354 311 280 262 248 252 283 242 270 300 288 294 66 61 34 316 357 17 2 355 359 349 321 300 282 268 264 258 272 291 301 308 308 314 339 257 300 138 219 206 179 157 164 167 165 178 178 185 186 181 186 186 187 186 186 187 187 187 184 186 185 181 181 182 183 183 185 186 187 190 190 189 185 181 176 166 157 159 160 152 150 154 161 156 147 137 123 121 122 132 148 137 184 253 265 274 289
57 296 267 265 241 232 259 248 273 301 290 305 36 73 58 343 357 346 346 351 344 319 296 297 276 185 257 273 316 303 289 324 20 340 319 26 28 119 217 209 188 164 165 172 167 175 177 188 190 184 187 188 191 190 188 189 190 189 187 188 188 186 183 184 185 183 187 186 190 195 194 194 185 174 164 156 152 154 159 147 144 148 153 153 144 133 127 123 122 156 158 139 236 272 286 292 300
51 264 255 265 267 268 279 275 272 269 287 335 322 39 37 351 344 333 335 329 321 305 278 271 280 141 247 281 308 297 330 341 44 339 313 34 21 226 228 214 190 172 171 174 172 174 181 195 193 188 187 189 193 193 191 191 192 192 192 193 191 189 186 187 186 184 188 189 194 197 196 194 180 169 159 154 155 156 158 151 147 147 149 154 152 141 136 134 134 172 168 197 266 281 291 296 303
241 218 218 249 276 340 276 264 258 257 306 357 302 329 351 339 343 334 321 317 331 284 258 242 284 292 264 251 227 263 336 333 328 299 273 338 261 242 241 215 184 177 178 175 177 175 186 199 197 193 188 189 194 195 195 194 195 196 198 197 197 194 189 190 188 188 191 193 199 199 198 192 175 171 167 161 169 175 169 167 169 166 166 169 177 169 155 161 171 204 209 247 276 285 293 297 301
255 210 188 222 213 240 259 266 281 283 27 31 304 317 324 326 338 325 315 321 74 149 205 232 299 294 276 231 227 234 258 274 303 290 202 253 268 255 245 206 180 182 182 178 179 178 193 200 197 197 191 190 193 196 198 197 198 199 202 201 201 201 196 193 191 193 195 199 204 202 198 189 175 171 171 172 183 194 191 191 194 183 178 183 198 196 186 197 203 222 223 250 281 287 291 293 298
260 259 183 247 223 202 260 273 280 286 4 355 301 303 307 319 329 317 314 314 307 131 195 223 253 275 268 151 264 177 187 238 246 257 255 258 263 269 253 194 186 187 181 181 179 182 201 203 198 198 194 192 192 196 200 200 201 202 205 205 204 206 204 198 195 197 198 203 206 202 196 186 178 174 178 187 193 209 221 213 208 203 191 186 197 203 206 208 208 215 214 252 279 283 284 286 291
234 257 207 266 256 228 262 265 266 278 289 305 298 292 297 305 313 311 309 305 308 323 257 236 218 262 316 293 284 164 159 200 237 262 267 266 265 264 249 195 193 190 182 182 182 186 204 206 201 201 197 193 193 197 202 202 203 204 207 207 207 209 208 203 200 202 202 205 204 201 194 187 185 182 184 192 202 216 230 221 211 214 207 196 200 208 206 202 208 209 220 258 274 273 271 264 213
211 247 257 268 269 261 260 261 273 292 294 305 297 298 307 307 311 304 303 313 330 322 26 53 237 247 293 302 291 263 143 169 254 285 268 269 264 247 244 208 196 188 186 182 184 186 203 210 205 203 199 195 195 198 203 204 205 206 208 209 209 209 208 205 204 206 205 204 204 199 191 189 192 195 201 202 210 214 216 221 212 209 210 205 204 208 202 198 205 206 232 260 265 252 230 182 144
214 201 272 271 257 268 286 307 320 325 319 306 294 314 342 4 321 288 284 305 314 304 241 159 245 257 279 285 285 131 131 169 87 75 250 267 259 228 226 215 205 193 190 190 191 188 200 213 210 206 200 198 199 200 204 205 207 208 209 210 209 208 207 204 207 209 206 204 200 194 191 195 201 210 217 213 220 221 213 218 213 205 204 203 201 202 198 200 203 209 239 253 237 204 179 155 127
245 183 224 265 271 290 318 318 315 315 307 290 274 98 68 64 280 291 312 310 312 301 263 171 281 332 290 285 297 135 132 113 112 177 252 266 253 224 205 213 215 202 197 200 200 195 196 213 215 206 201 201 202 204 207 208 209 209 210 210 208 208 208 206 208 209 205 200 194 194 198 200 205 212 212 211 225 232 221 212 210 207 204 201 200 199 199 201 198 213 237 231 200 182 169 154 125
261 254 249 268 297 300 306 304 303 308 300 292 96 105 104 247 258 306 328 314 302 300 307 135 330 319 286 292 295 227 130 105 145 221 254 217 202 219 207 203 216 205 204 210 206 201 194 202 207 203 204 205 206 208 210 211 211 209 210 209 208 209 209 208 206 203 200 196 197 201 204 204 209 217 220 223 231 237 227 208 207 208 205 205 202 200 202 196 194 215 227 206 190 181 168 158 136
279 296 279 279 297 282 284 287 295 301 299 71 90 119 163 253 280 318 309 303 300 312 20 46 316 303 282 276 277 267 111 112 181 223 235 211 199 211 207 198 213 205 207 215 208 204 198 197 195 199 207 208 208 212 214 215 213 211 211 210 209 209 208 207 202 199 201 201 204 207 208 211 216 225 231 233 232 232 223 207 205 207 204 206 205 202 201 192 199 218 217 199 189 180 173 162 141
287 292 274 274 273 269 251 262 297 297 291 40 99 117 213 251 222 259 276 290 303 342 2 274 237 265 295 288 296 65 114 152 134 244 238 226 216 214 215 209 216 211 211 214 209 207 203 200 197 198 205 208 209 212 216 217 216 213 213 212 210 209 208 206 202 201 206 209 211 214 217 221 225 230 233 231 227 226 221 210 205 205 203 204 203 201 198 192 207 220 210 198 189 182 180 161 136
265 276 252 262 268 267 218 236 280 269 297 31 118 133 278 269 188 237 282 287 291 298 267 250 199 234 280 284 294 58 142 221 316 294 258 230 226 219 224 218 217 217 217 215 210 210 206 203 201 200 202 204 207 209 214 216 217 216 214 213 210 209 208 206 206 207 211 214 218 221 223 225 225 227 228 226 226 227 225 217 208 203 200 201 198 197 194 191 211 217 204 199 193 191 184 159 113
235 252 246 255 255 258 234 235 268 281 324 352 145 166 285 300 189 209 21 239 270 278 264 256 229 238 258 263 275 280 244 264 275 269 214 209 218 215 220 215 213 214 217 217 214 211 208 206 203 202 202 203 205 208 212 214 218 218 214 214 211 209 209 208 209 211 214 217 221 222 221 221 219 221 221 221 226 229 230 223 212 203 196 198 196 194 190 192 212 212 203 204 198 196 182 168 134
215 230 242 251 253 266 257 259 288 295 299 302 292 282 288 293 274 204 233 244 254 268 267 263 250 243 249 257 264 257 254 258 240 233 229 220 219 219 217 208 209 212 213 215 215 212 207 207 205 204 203 203 203 205 209 211 217 221 217 214 213 212 211 212 211 213 216 217 221 221 218 216 212 215 216 218 224 228 231 226 214 203 193 197 194 190 188 195 212 210 206 207 198 200 191 192 204
221 246 254 251 259 280 285 278 292 290 288 297 300 297 284 282 288 287 269 271 272 274 274 271 265 252 248 253 253 247 244 241 224 231 244 239 234 235 231 214 207 211 212 211 214 213 206 207 207 206 206 204 202 204 207 209 214 219 218 215 216 216 215 216 215 216 218 217 222 222 216 213 209 208 211 216 221 224 229 223 213 203 192 198 195 187 189 198 212 211 208 206 198 201 197 205 220
229 241 255 258 265 275 271 277 285 283 291 293 292 297 289 279 280 274 265 277 280 275 276 276 277 273 264 265 266 262 245 233 230 234 241 244 244 245 244 235 219 214 215 215 213 210 208 209 208 209 208 205 204 205 206 208 210 214 216 215 215 216 216 218 217 216 218 216 220 221 214 211 207 205 211 214 216 217 220 217 210 201 192 202 201 189 195 204 213 213 207 205 203 202 200 208 221
234 221 248 270 282 278 268 281 284 280 292 290 290 293 284 284 281 263 261 276 276 269 275 281 287 293 294 294 297 292 263 238 240 240 241 246 249 248 248 247 240 230 220 215 210 208 212 213 209 210 210 207 207 206 207 208 209 212 213 212 212 213 213 215 216 214 215 213 215 217 211 209 203 200 209 212 209 203 205 209 204 197 192 201 205 195 202 210 213 213 207 205 206 204 202 207 215
253 232 248 268 275 275 275 288 291 286 294 283 282 281 281 292 278 258 258 264 265 270 283 289 290 295 297 296 295 291 270 251 253 252 248 248 250 250 250 249 248 243 224 211 210 213 218 216 210 208 208 209 209 208 209 210 210 212 213 212 212 212 210 210 212 212 211 211 213 214 209 207 200 196 204 205 199 191 194 199 195 194 190 197 204 195 200 211 212 212 208 205 206 205 205 208 212
253 254 253 264 268 272 280 291 300 279 280 275 276 282 288 284 273 271 265 259 260 268 277 282 286 290 292 291 287 279 267 260 260 260 255 251 251 250 250 249 247 242 228 216 215 215 216 218 215 211 209 209 210 209 209 210 212 213 214 214 212 211 208 207 208 209 207 207 210 210 207 204 196 192 198 197 194 192 193 193 190 192 190 195 200 191 193 207 210 210 207 205 205 205 207 210 213
244 267 269 272 274 275 281 287 280 260 271 273 280 285 281 275 276 282 274 268 268 268 269 274 281 286 286 284 278 272 267 264 261 259 257 254 252 250 249 249 248 244 237 229 222 217 216 221 221 214 211 211 208 207 208 211 212 213 214 213 212 210 208 207 206 205 205 204 207 208 205 200 192 191 194 193 193 194 195 192 190 192 191 193 195 190 194 204 208 207 205 205 206 207 208 211 214
242 258 272 277 276 274 280 283 272 264 268 272 277 273 269 272 279 282 277 276 273 268 267 271 276 280 280 278 275 271 267 265 261 258 255 251 250 250 248 246 245 242 238 236 228 221 219 222 223 217 215 214 209 207 208 210 212 212 212 212 211 210 208 207 205 204 203 203 208 209 205 198 192 194 195 194 194 193 193 192 190 190 191 191 189 190 201 207 206 204 205 206 207 207 207 211 216
259 266 286 294 288 284 281 278 269 262 262 268 272 269 269 276 283 276 269 273 273 265 261 269 278 281 278 273 271 269 266 262 259 258 255 250 247 247 246 241 239 238 237 237 230 226 224 221 221 221 220 217 209 207 209 209 210 210 210 211 212 212 211 209 206 205 202 204 209 209 207 203 196 195 198 197 193 192 192 191 191 190 189 190 191 194 205 209 205 204 205 206 205 204 206 211 214
327 300 300 294 287 285 277 274 268 261 263 261 260 270 277 283 285 273 264 270 275 263 257 269 283 285 282 276 271 268 265 258 256 259 258 252 245 241 238 231 234 237 238 236 230 228 229 224 221 222 222 217 210 207 211 210 209 211 211 211 213 214 213 209 207 206 203 205 207 209 211 210 204 197 201 201 194 192 192 192 193 191 189 195 200 203 208 209 205 206 206 205 203 201 205 209 211
306 301 300 287 282 281 273 268 264 258 260 251 252 270 279 278 263 255 261 266 267 264 265 273 280 283 284 281 277 271 267 263 262 263 260 257 253 248 241 231 232 236 236 237 238 234 228 224 222 222 219 217 214 210 213 213 209 212 213 212 214 213 212 210 207 207 205 204 207 214 216 215 211 203 204 207 202 195 194 196 196 195 196 203 208 209 210 207 202 205 205 203 201 201 205 207 207
282 288 289 285 284 278 272 268 260 250 239 178 238 273 277 271 252 250 260 266 267 267 273 280 281 282 282 282 281 276 273 273 272 272 271 269 265 260 255 249 245 245 243 242 245 239 230 225 222 222 216 214 218 214 212 215 210 210 211 211 212 211 210 210 208 207 207 206 213 221 221 217 215 210 209 212 209 202 201 204 203 203 206 210 212 211 211 207 202 204 206 202 201 202 205 206 204
272 275 270 283 287 280 274 262 221 232 201 145 202 273 288 286 283 282 291 304 293 285 286 289 287 286 283 281 281 278 278 279 278 278 280 278 274 267 264 263 262 260 258 251 243 235 231 230 225 222 216 214 220 217 211 212 210 208 209 209 211 209 208 208 208 207 207 208 216 224 223 219 217 215 214 215 213 209 209 211 212 211 212 213 213 212 212 209 205 207 208 204 204 204 205 206 201
269 274 256 263 274 280 279 206 171 218 172 155 207 261 280 286 293 301 320 335 299 293 291 289 289 289 284 279 280 281 283 284 283 285 288 288 283 278 272 274 277 273 268 259 246 236 233 232 230 229 226 221 221 219 213 210 209 209 209 209 210 209 208 209 209 208 207 209 218 226 225 221 219 217 216 217 216 214 214 215 216 215 214 213 214 214 213 210 208 211 209 205 204 202 204 204 196
259 270 264 251 257 281 285 203 194 238 192 167 204 264 273 277 293 301 307 303 295 293 289 287 289 289 285 283 285 287 290 292 291 294 297 296 294 295 290 289 295 293 285 273 258 245 238 233 234 236 235 229 222 219 217 213 211 210 209 211 211 210 211 213 211 211 210 209 218 226 226 223 221 219 218 219 219 217 216 218 219 217 216 215 216 216 214 211 209 211 210 205 202 197 198 197 188
247 247 260 268 274 287 292 269 238 248 172 186 212 260 280 280 294 297 297 296 294 288 283 285 289 290 288 291 294 293 295 298 302 310 321 328 329 329 322 319 322 321 315 300 281 261 251 240 235 237 236 230 222 220 218 213 211 209 210 212 212 211 213 215 214 215 214 213 218 224 227 225 222 221 220 221 221 220 219 220 220 220 219 218 218 217 214 210 208 208 207 204 201 196 194 192 182
269 257 258 270 278 291 298 304 305 179 180 229 236 252 272 279 286 289 290 290 285 278 278 285 290 289 288 295 297 295 300 308 327 345 355 1 355 349 344 345 345 341 339 331 313 287 272 258 238 235 236 228 221 219 215 212 212 210 209 210 210 212 214 215 214 216 217 217 219 222 226 227 225 222 221 222 222 222 221 221 221 222 222 220 217 216 213 207 206 207 204 201 200 198 195 191 181
290 287 286 287 288 298 297 294 305 282 262 278 276 271 282 289 289 290 291 288 280 275 280 287 289 287 289 296 299 304 318 333 1 13 15 18 10 360 357 359 1 359 359 357 349 327 298 281 250 237 237 228 220 218 214 212 213 213 212 211 211 210 213 214 214 222 227 224 218 219 227 229 227 223 221 223 222 222 223 222 222 223 223 220 216 215 211 205 204 204 203 201 197 197 198 191 181
290 293 292 293 291 290 288 287 299 317 303 292 291 290 295 298 295 291 285 282 283 286 287 285 283 284 288 297 312 328 348 9 27 31 30 27 17 8 8 10 13 19 21 16 10 0 338 310 272 242 236 224 215 212 209 207 208 213 215 215 216 214 216 217 221 227 231 230 220 216 226 229 227 224 222 223 223 223 224 223 223 225 224 219 215 214 210 205 204 203 202 200 194 191 192 186 182
291 291 283 282 284 281 282 286 299 9 337 290 294 298 299 299 290 280 276 281 288 288 283 278 280 285 293 313 346 2 18 34 37 37 33 26 18 13 15 17 19 26 26 22 19 11 360 343 311 275 247 219 210 207 204 205 207 211 214 218 223 223 221 220 223 224 227 232 223 212 225 229 227 225 223 223 224 223 223 224 225 226 225 220 217 216 212 208 207 204 202 200 196 189 183 181 184
283 281 280 279 279 279 282 288 301 35 331 291 301 300 301 300 288 280 279 282 282 280 282 283 288 300 321 356 20 30 34 40 39 35 29 24 20 16 17 21 23 25 23 22 22 17 13 6 352 330 299 235 220 215 207 209 212 214 218 224 228 228 226 221 222 223 224 229 224 216 225 229 229 228 227 225 225 224 223 224 225 227 226 222 220 218 214 211 208 205 202 200 198 194 188 184 184
274 271 275 274 274 282 286 285 300 75 289 298 307 302 298 289 283 288 286 267 270 277 292 300 313 333 12 39 42 44 39 38 36 31 26 22 21 19 20 23 24 24 22 22 22 21 21 17 9 359 345 310 265 238 224 226 224 222 224 227 222 216 219 218 221 222 219 218 222 230 233 233 234 232 231 228 226 225 225 224 225 228 227 223 220 218 215 213 210 207 205 202 197 195 193 190 188
256 256 265 266 272 283 288 288 358 310 289 295 300 295 285 274 271 275 253 252 282 280 274 306 25 43 57 60 52 48 42 38 35 28 23 21 22 22 22 22 23 25 25 22 21 21 22 18 13 9 6 0 347 303 261 256 236 205 202 218 217 205 209 209 212 222 228 231 234 239 241 239 237 235 233 232 229 228 226 225 225 228 228 225 222 219 216 215 213 210 208 205 197 191 189 193 195
249 246 249 259 273 280 289 304 317 304 286 283 301 295 287 281 260 239 227 289 304 310 90 70 77 73 71 67 57 53 49 44 40 32 27 24 24 25 22 20 22 27 27 23 22 22 21 20 18 16 20 20 18 17 345 299 234 162 188 225 234 229 236 234 227 229 233 237 238 241 244 243 240 238 237 235 233 231 229 227 226 228 230 227 223 221 219 218 217 213 210 208 203 197 191 192 197
262 248 244 258 278 286 292 305 315 304 278 101 3 315 298 330 271 265 270 289 289 44 77 72 74 70 72 71 61 58 53 50 49 41 35 32 30 28 26 23 22 26 25 23 24 26 26 25 22 22 25 23 23 27 20 6 333 305 265 262 270 262 258 253 247 245 237 234 234 234 239 242 243 241 238 237 236 234 232 229 228 228 230 229 226 223 221 220 218 216 212 209 208 207 200 191 194
268 269 258 264 281 286 291 303 308 299 287 298 3 298 282 282 275 267 259 266 263 98 84 76 67 61 69 68 58 55 49 48 49 44 40 35 33 31 29 25 23 24 23 24 26 28 30 28 26 25 26 23 22 28 29 21 8 349 333 309 303 302 295 293 294 277 256 246 238 229 229 237 243 241 237 237 237 236 236 233 230 231 231 232 230 225 222 222 221 219 216 212 211 210 206 198 196
275 16 16 322 289 289 293 297 285 279 292 284 230 230 266 290 285 245 232 254 241 115 98 88 79 73 68 59 53 49 42 44 46 44 40 36 33 33 33 30 27 26 26 28 29 28 31 30 30 30 30 27 23 27 31 25 16 8 356 342 323 315 308 306 319 315 278 253 242 233 227 233 242 245 241 238 238 238 237 235 232 232 232 232 231 227 225 225 224 222 218 216 214 212 210 207 202
324 38 351 332 310 296 292 286 283 281 291 285 209 199 257 286 274 185 221 241 192 132 105 92 90 84 74 64 55 46 40 46 52 51 44 38 36 34 35 35 32 31 30 31 31 30 32 32 32 34 33 31 27 29 34 28 20 10 1 359 351 340 330 319 317 314 303 274 251 238 233 235 238 243 244 240 240 238 238 238 235 233 233 232 231 229 228 228 228 225 221 218 216 215 214 213 210
54 65 299 290 265 268 270 267 280 278 268 271 223 191 237 291 264 184 208 222 186 139 104 91 88 82 77 72 62 48 34 43 54 56 47 41 39 35 36 37 35 33 32 33 33 31 32 32 34 35 33 31 30 32 35 31 23 13 6 3 356 348 340 333 327 319 314 300 281 261 247 244 237 236 240 240 244 244 239 237 235 235 235 233 232 231 230 229 229 227 225 223 220 219 219 218 217
98 249 276 277 256 247 251 249 263 268 261 274 225 191 216 290 266 193 166 159 148 115 115 113 100 88 77 70 67 56 36 42 55 55 46 41 39 36 35 35 34 32 31 32 31 31 32 32 34 36 34 32 32 34 36 34 27 19 9 1 354 352 345 336 332 325 321 314 303 293 274 261 247 238 237 239 247 251 244 237 235 237 237 234 233 233 231 228 229 230 229 227 224 221 221 220 220
213 258 289 298 274 235 233 220 208 256 269 310 129 182 220 254 242 258 49 115 80 76 120 127 110 98 85 75 72 59 41 46 57 53 43 37 35 34 33 32 30 29 29 30 29 30 31 30 33 36 35 32 32 35 36 35 30 23 13 4 358 354 349 343 338 332 328 321 311 305 296 285 269 253 242 237 246 255 251 243 239 237 235 233 231 233 234 231 230 231 231 228 226 223 223 222 222
208 244 257 282 289 266 259 250 241 267 272 102 103 175 236 251 255 261 243 170 113 85 101 115 110 107 100 90 79 64 52 54 58 53 39 35 34 31 31 31 29 28 27 27 27 29 30 29 31 35 34 31 32 35 36 35 31 25 17 9 4 357 353 350 344 339 336 330 322 316 309 300 293 281 263 249 252 260 259 252 247 243 239 237 236 236 237 235 231 230 231 229 228 227 226 225 224
192 214 225 249 279 278 276 276 270 271 256 135 140 200 254 264 261 240 219 125 95 91 90 95 103 108 105 98 91 80 67 59 58 53 41 38 36 32 31 31 30 30 28 27 28 29 31 31 31 33 32 31 32 34 36 37 32 27 22 17 11 3 356 352 349 348 344 337 330 322 316 309 302 297 288 277 268 263 264 264 259 254 249 243 241 241 240 238 234 231 232 230 229 229 228 227 228
196 204 227 246 260 266 273 277 270 274 281 261 179 183 256 278 6 139 132 101 96 96 92 93 97 104 107 104 98 81 65 58 54 50 45 41 38 35 35 33 31 30 28 29 31 29 32 33 32 34 33 30 31 32 34 36 34 31 29 26 21 13 3 355 352 351 345 339 332 323 315 310 305 301 297 294 284 266 268 275 268 260 257 249 245 245 243 240 237 235 234 233 232 231 230 229 229
203 158 225 250 253 251 261 270 272 284 292 275 229 227 260 271 248 121 111 100 101 98 95 98 96 100 105 96 80 63 55 52 47 46 44 41 39 37 38 36 35 34 31 31 31 30 33 34 34 36 35 32 31 30 31 32 32 33 34 32 30 24 16 8 0 355 350 343 334 325 317 310 305 302 297 295 291 272 269 281 279 269 263 256 249 247 245 242 239 238 237 236 235 234 232 231 230
137 161 234 268 272 256 263 268 267 269 272 267 254 259 265 270 259 163 119 101 102 105 101 99 94 92 88 74 64 56 51 49 46 46 42 39 39 37 36 33 32 31 31 32 31 31 33 33 34 35 35 34 33 31 30 29 28 30 31 32 32 29 24 18 12 7 2 355 344 335 326 317 310 306 299 294 290 277 272 279 281 275 266 259 254 250 248 246 243 241 239 237 237 236 235 233 232
198 217 272 4 285 243 255 263 265 261 262 261 256 265 269 275 275 145 123 119 118 116 109 103 98 89 79 70 63 55 53 50 46 45 40 36 35 34 32 29 28 27 27 29 29 30 33 33 32 32 31 32 32 33 33 30 29 26 23 23 23 23 22 20 20 18 14 9 2 352 342 330 321 314 307 299 290 282 279 278 277 276 270 264 260 255 251 250 246 244 243 241 240 238 237 236 235
259 278 349 340 258 251 243 250 257 256 262 264 257 264 268 261 263 258 204 159 138 128 121 113 100 88 79 74 69 58 53 48 43 43 33 30 29 24 22 21 21 23 21 23 25 27 31 31 30 30 28 28 29 32 34 33 33 30 24 20 17 16 18 17 18 19 17 14 9 3 358 349 337 326 316 308 299 289 286 282 277 276 273 267 264 260 256 253 249 247 247 245 242 239 239 240 238
265 292 268 239 260 277 264 261 263 259 265 273 265 262 262 259 277 296 269 145 141 143 135 120 98 91 80 71 67 52 51 43 33 38 26 20 18 8 8 6 4 8 10 14 20 23 26 26 25 26 25 26 26 26 27 28 31 32 31 30 27 22 19 17 17 18 18 17 13 10 7 1 353 343 332 320 308 298 293 288 281 277 274 269 265 262 259 256 253 251 249 246 244 242 240 241 241
220 228 231 224 226 263 273 261 250 255 265 268 265 259 252 266 344 26 84 120 143 147 135 129 117 111 104 101 109 90 82 73 41 46 25 14 6 356 354 350 347 350 353 359 9 16 20 20 19 19 20 23 24 24 23 22 22 24 27 29 30 29 26 22 20 18 18 17 15 12 9 6 2 356 347 334 320 309 300 293 286 280 275 271 267 263 260 257 254 254 253 249 248 245 242 242 241
258 241 236 245 250 256 266 256 236 237 256 259 264 265 257 300 22 49 86 103 119 128 130 132 133 138 142 147 154 149 122 87 50 28 1 3 1 353 348 344 344 345 346 353 360 4 12 15 16 18 17 17 17 16 17 19 19 17 16 18 22 25 25 24 23 20 17 14 11 8 7 6 3 359 354 348 337 325 312 301 294 286 279 275 271 267 263 258 255 255 255 253 250 247 245 244 243